sat.trackr.live / text

‹ back to catalog

STARLINK-3119

NORAD 49145 · 2021-082R

PAYLOAD ACTIVE UNKNOWN

§ Identity

Operator
Country
US
Launch date
2021-09-14
Launch site
AFWTR
Launch vehicle
Mass (kg)
RCS (m²)

Purposes: comms

External: N2YO · Heavens-Above · Gunter

§ Orbital elements

Epoch: 2026-09-08T21:46:06.557376Z

Period
96.11 min
Inclination
70.0010°
Eccentricity
0.0002663
Mean motion
14.98334137 rev/d
Perigee alt
570.2 km
Apogee alt
573.9 km
Semi-major
6,950.2 km
B*
7.0578e-5
RAAN
152.4861°
Arg perigee
263.7309°
Mean anomaly
96.3547°
Rev number
27,440

§ Raw data

STARLINK-31191 49145U 21082R   26251.90702034  .00000749  00000+0  70578-4 0  99972 49145  70.0010 152.4861 0002663 263.7309  96.3547 14.98334137274401

JSON: /api/v1/satellites/49145 · /tle

For live sub-satellite position, see the globe view (requires WebGL).

§ Visibility from observer

Set your observer location to see the next 7 days of passes ≥ 10°. The values pass through the URL so the page stays shareable.

No JS? Fill the form by hand. The geolocation button needs JavaScript.